Карточка аэропорта UNKL

Внимание!
Информация на этой странице в стадии наполнения.
Если вы не увидели какой-то информации, или заметили неточность - пожалуйста сообщите нам!
Спасибо!
Команда RU-STAFF
Название аэропортаЕмельяново
Название аэропорта (англ.)Yemelyanovo
Превышение942 ft. (287.1 m.)
Координаты56°10.386', 92°29.598'
Высота перехода1100m
Эшелон переходаFL060
Коды ответчика5320-5377
Зона ОрВДКрасноярск РПИ (UNKL)
Данные METARUNKL 272000Z 30001MPS 2200 -SHSN BKN007 BKN013CB 00/00 Q1005 R11/290150 NOSIG RMK QFE728
Проноз погоды (TAF)UNKL 272000Z 2721/2821 08003MPS 3000 -SHSN BR BKN005 BKN016CB TEMPO 2721/2803 0250 -SHSN FZFG BKN002 BKN016CB BECMG 2803/2805 6000 -SHRA BKN016CB TEMPO 2805/2808 27005MPS
NOTAMshow/hide NOTAM
AWOS   TABLE

Информация о ВПП

ВПП Длина ВПП (м.) Покрытие Курс ВПП Частота ILS
113700Асфальтобетон109110.5
293700Асфальтобетон289111.7

Диспетчерские позиции

Позывной Наименование органа УВД Частота
UNKL_TWRКрасноярск-Старт/Посадка118.3
UNKL_GNDКрасноярск-Руление121.9
UNKL_R_APPКрасноярск-Круг122.0
UNKL_APPКрасноярск-Подход127.7



Спутниковое изображение